Waarnemingen

Advertentie
Mijn weer
Lugo/Rozas, Spanje (8008): temperatuur & dauwpunt: 09.08.2018 01:00:00 - 15.08.2018 01:00:00 (CEST)Lugo/Rozas, Spanje (8008): windsnelheid: 09.08.2018 01:00:00 - 15.08.2018 01:00:00 (CEST)Lugo/Rozas, Spanje (8008): windrichting: 09.08.2018 01:00:00 - 15.08.2018 01:00:00 (CEST)Lugo/Rozas, Spanje (8008): luchtdruk: 09.08.2018 01:00:00 - 15.08.2018 01:00:00 (CEST)Lugo/Rozas, Spanje (8008): zicht: 09.08.2018 01:00:00 - 15.08.2018 01:00:00 (CEST)Lugo/Rozas, Spanje (8008): neerslag: 09.08.2018 01:00:00 - 15.08.2018 01:00:00 (CEST)
Datum & Tijd tt [°C] td [°C] ff [km/u] ff [kn] dd ppp [hPa] vv [km] rr [mm]
15.08.2018 01:00:00 - - - - - - - -
15.08.2018 00:00:00 15,5 14,2 2 1 NO 1021,4 17 0,0
14.08.2018 23:00:00 16,0 14,5 5 3 NO 1021,3 20 -
14.08.2018 22:00:00 16,7 14,7 8 4 NO 1020,9 20 0,0
14.08.2018 21:00:00 18,0 15,1 8 4 NO 1020,1 20 0,0
14.08.2018 20:00:00 19,7 15,6 11 6 NO 1019,6 20 -
14.08.2018 19:00:00 21,9 16,4 9 5 NO 1019,1 20 0,0
14.08.2018 18:00:00 23,0 16,5 11 6 NO 1019,1 20 0,0
14.08.2018 17:00:00 24,2 17,0 8 4 NO 1019,3 20 -
14.08.2018 16:00:00 24,1 16,9 11 6 NO 1019,5 20 0,0
14.08.2018 15:00:00 23,9 16,7 11 6 NO 1020,0 20 0,0
14.08.2018 14:00:00 23,5 16,0 11 6 NO 1020,3 20 -
14.08.2018 13:00:00 22,5 15,6 8 4 NO 1020,8 20 0,0
14.08.2018 12:00:00 20,8 14,4 11 6 ONO 1021,1 20 0,0
14.08.2018 11:00:00 19,6 14,6 11 6 ONO 1021,2 20 -
14.08.2018 10:00:00 18,0 14,1 9 5 NO 1021,4 20 0,0
14.08.2018 09:00:00 15,0 14,5 5 3 ONO 1022,0 20 0,0
14.08.2018 08:00:00 10,3 9,5 4 2 ZO 1022,8 12 -
14.08.2018 07:00:00 10,3 9,4 2 1 Z 1022,4 11 0,0
14.08.2018 06:00:00 11,0 9,7 2 1 ZZO 1022,0 9 0,0
14.08.2018 05:00:00 11,3 10,7 4 2 ZW 1022,0 12 -
14.08.2018 04:00:00 11,3 9,9 2 1 WNW 1022,0 10 0,0
14.08.2018 03:00:00 12,1 10,8 0 0 N 1021,9 9 0,0
14.08.2018 02:00:00 12,9 11,1 2 1 WNW 1021,7 10 -
14.08.2018 01:00:00 14,0 12,2 0 0 N 1021,4 12 0,0
14.08.2018 00:00:00 15,0 13,2 8 4 ONO 1021,4 20 0,0
13.08.2018 23:00:00 15,8 13,6 11 6 ONO 1020,9 16 -
13.08.2018 22:00:00 17,8 14,9 8 4 ONO 1019,9 20 0,0
13.08.2018 21:00:00 20,2 13,9 5 3 N 1018,6 20 0,0
13.08.2018 20:00:00 21,6 14,3 4 2 NNW 1018,0 20 -
13.08.2018 19:00:00 22,8 14,4 4 2 NNW 1017,7 20 0,0
13.08.2018 18:00:00 22,5 14,3 5 3 N 1017,9 20 0,0
13.08.2018 17:00:00 22,8 14,6 8 4 NNW 1017,9 20 -
13.08.2018 16:00:00 21,4 15,0 5 3 WNW 1018,5 20 0,0
13.08.2018 15:00:00 21,0 13,7 4 2 OZO 1018,5 20 0,0
13.08.2018 14:00:00 19,6 13,8 9 5 WZW 1018,8 20 -
13.08.2018 13:00:00 18,6 13,7 5 3 WZW 1019,1 20 0,0
13.08.2018 12:00:00 17,9 13,8 8 4 WZW 1019,1 20 0,0
13.08.2018 11:00:00 16,9 13,6 9 5 WZW 1019,0 20 -
13.08.2018 10:00:00 16,0 13,5 5 3 ZW 1018,7 20 0,0
13.08.2018 09:00:00 14,5 12,9 5 3 ZW 1018,9 20 0,0
13.08.2018 08:00:00 14,6 12,6 4 2 ZW 1018,1 20 -
13.08.2018 07:00:00 14,2 12,4 4 2 ZZW 1017,9 20 0,0
13.08.2018 06:00:00 14,5 12,2 8 4 ZW 1017,8 20 0,0
13.08.2018 05:00:00 14,5 12,0 4 2 ZW 1017,7 20 -
13.08.2018 04:00:00 14,1 12,0 5 3 ZW 1017,9 19 0,0
13.08.2018 03:00:00 14,9 12,8 5 3 WZW 1018,0 20 0,0
13.08.2018 02:00:00 15,5 13,2 4 2 W 1018,2 20 -
13.08.2018 01:00:00 16,0 13,7 2 1 NW 1017,9 20 0,0
13.08.2018 00:00:00 16,5 14,0 4 2 NNW 1017,8 19 0,0
12.08.2018 23:00:00 17,3 15,3 2 1 WNW 1017,3 20 -
12.08.2018 22:00:00 18,0 15,4 2 1 NNO 1016,8 20 0,0
12.08.2018 21:00:00 20,0 16,0 8 4 W 1015,7 20 0,0
12.08.2018 20:00:00 21,9 16,0 18 10 WZW 1015,0 20 -
12.08.2018 19:00:00 23,9 16,9 15 8 W 1014,9 20 0,0
12.08.2018 18:00:00 23,8 16,3 21 11 WZW 1015,2 20 0,0
12.08.2018 17:00:00 23,2 16,5 15 8 W 1015,4 20 -
12.08.2018 16:00:00 23,2 16,5 15 8 WZW 1015,8 20 0,0
12.08.2018 15:00:00 23,4 16,4 16 9 W 1016,1 20 0,0
12.08.2018 14:00:00 23,6 15,6 13 7 ZW 1015,9 20 -
12.08.2018 13:00:00 21,7 16,2 9 5 ZW 1016,7 20 0,0
12.08.2018 12:00:00 20,3 15,3 8 4 ZW 1017,1 20 0,0
12.08.2018 11:00:00 18,8 15,3 5 3 WZW 1017,1 20 -
12.08.2018 10:00:00 15,4 14,1 4 2 O 1017,8 20 0,0
12.08.2018 09:00:00 13,1 12,6 0 0 N 1018,2 14 0,0
12.08.2018 08:00:00 11,7 10,9 2 1 ZZO 1018,6 1,6 -
12.08.2018 07:00:00 11,6 10,8 2 1 ZO 1018,7 0,3 0,0
12.08.2018 06:00:00 11,7 10,6 2 1 O 1018,6 0,7 0,0
12.08.2018 05:00:00 12,5 10,7 2 1 Z 1018,9 7 -
12.08.2018 04:00:00 13,4 11,5 2 1 ZZO 1019,2 9 0,0
12.08.2018 03:00:00 14,1 12,7 2 1 NNW 1019,4 11 0,0
12.08.2018 02:00:00 15,1 13,3 0 0 N 1019,9 13 -
12.08.2018 01:00:00 16,4 14,2 2 1 Z 1020,1 7 0,0
12.08.2018 00:00:00 17,8 15,4 2 1 Z 1020,3 19 0,0
11.08.2018 23:00:00 19,4 16,1 2 1 ZW 1020,1 20 -
11.08.2018 22:00:00 21,2 17,2 2 1 N 1019,2 20 0,0
11.08.2018 21:00:00 22,8 17,7 4 2 NO 1018,6 20 0,0
11.08.2018 20:00:00 25,7 17,9 9 5 NO 1018,0 20 -
11.08.2018 19:00:00 29,4 12,8 4 2 N 1017,3 20 0,0
11.08.2018 18:00:00 29,6 11,2 5 3 NO 1017,7 20 0,0
11.08.2018 17:00:00 29,3 8,4 4 2 O 1018,1 20 -
11.08.2018 16:00:00 28,8 10,5 5 3 WNW 1018,9 20 0,0
11.08.2018 15:00:00 27,4 15,1 8 4 W 1019,5 20 0,0
11.08.2018 14:00:00 25,2 16,3 5 3 NW 1020,4 20 -
11.08.2018 13:00:00 22,0 16,5 5 3 NW 1021,4 20 0,0
11.08.2018 12:00:00 18,4 15,1 4 2 N 1022,3 20 0,0
11.08.2018 11:00:00 14,9 13,6 4 2 W 1023,5 20 -
11.08.2018 10:00:00 12,1 11,8 2 1 WNW 1024,3 1,9 0,0
11.08.2018 09:00:00 10,5 10,0 2 1 O 1024,7 0,2 0,0
11.08.2018 08:00:00 10,6 9,8 2 1 WZW 1024,2 0,2 -
11.08.2018 07:00:00 11,0 10,1 2 1 ZZW 1024,2 0,2 0,0
11.08.2018 06:00:00 11,3 10,5 2 1 Z 1024,3 0,3 0,0
11.08.2018 05:00:00 11,2 10,6 2 1 ZO 1024,5 0,2 -
11.08.2018 04:00:00 11,0 9,6 0 0 N 1024,8 12 0,0
11.08.2018 03:00:00 11,7 9,9 2 1 Z 1025,2 10 0,0
11.08.2018 02:00:00 12,4 10,6 2 1 ZZO 1025,8 9 -
11.08.2018 01:00:00 13,2 11,1 0 0 N 1025,6 14 0,0
11.08.2018 00:00:00 13,9 12,3 2 1 O 1025,5 20 0,0
10.08.2018 23:00:00 14,5 12,7 2 1 NO 1025,4 18 -
10.08.2018 22:00:00 15,5 12,8 4 2 NO 1024,7 20 0,0
10.08.2018 21:00:00 17,4 13,3 8 4 NO 1024,0 20 0,0
10.08.2018 20:00:00 19,3 13,9 8 4 NO 1023,4 20 -
10.08.2018 19:00:00 20,8 14,0 9 5 NO 1023,1 20 0,0
10.08.2018 18:00:00 22,5 14,6 15 8 ONO 1022,7 20 0,0
10.08.2018 17:00:00 23,4 13,8 5 3 NO 1022,6 20 -
10.08.2018 16:00:00 23,8 13,1 8 4 N 1022,8 20 0,0
10.08.2018 15:00:00 22,8 11,8 8 4 ONO 1023,2 20 0,0
10.08.2018 14:00:00 22,2 12,7 5 3 NNO 1023,6 20 -
10.08.2018 13:00:00 20,5 12,7 4 2 N 1024,2 20 0,0
10.08.2018 12:00:00 18,7 11,7 5 3 ONO 1024,6 20 0,0
10.08.2018 11:00:00 15,9 11,5 4 2 O 1025,1 20 -
10.08.2018 10:00:00 10,7 9,6 2 1 W 1026,2 18 0,0
10.08.2018 09:00:00 8,1 7,3 2 1 WNW 1026,8 2,3 0,0
10.08.2018 08:00:00 6,9 6,3 0 0 N 1026,5 0,3 -
10.08.2018 07:00:00 6,5 5,4 2 1 ZZO 1026,7 0,5 0,0
10.08.2018 06:00:00 6,9 5,5 0 0 N 1026,5 14 0,0
10.08.2018 05:00:00 7,3 5,8 2 1 Z 1026,5 15 -
10.08.2018 04:00:00 7,9 6,4 2 1 Z 1026,5 12 0,0
10.08.2018 03:00:00 8,4 6,9 2 1 ZZO 1026,7 15 0,0
10.08.2018 02:00:00 9,2 7,5 2 1 Z 1027,1 15 -
10.08.2018 01:00:00 10,1 8,4 2 1 WZW 1026,9 18 0,0
10.08.2018 00:00:00 11,2 8,8 2 1 NW 1026,7 20 0,0
09.08.2018 23:00:00 12,6 9,1 2 1 NNO 1026,1 20 -
09.08.2018 22:00:00 13,8 9,4 4 2 NO 1025,0 20 0,0
09.08.2018 21:00:00 15,5 9,6 9 5 NO 1024,2 20 0,0
09.08.2018 20:00:00 16,9 9,6 11 6 NO 1023,6 20 -
09.08.2018 19:00:00 19,0 11,1 9 5 NO 1022,8 20 0,0
09.08.2018 18:00:00 19,9 10,6 13 7 ONO 1022,4 20 0,0
09.08.2018 17:00:00 20,8 11,7 5 3 NO 1022,4 20 -
09.08.2018 16:00:00 19,9 11,4 9 5 NO 1022,9 20 0,0
09.08.2018 15:00:00 18,9 12,2 9 5 NO 1023,1 20 0,0
09.08.2018 14:00:00 18,5 12,0 8 4 ONO 1022,8 20 -
09.08.2018 13:00:00 18,8 11,6 9 5 ONO 1022,7 20 0,0
09.08.2018 12:00:00 17,7 12,2 5 3 N 1022,7 20 0,0
09.08.2018 11:00:00 16,6 13,1 4 2 NW 1022,2 20 -
09.08.2018 10:00:00 14,4 12,4 2 1 NNW 1022,1 20 0,0
09.08.2018 09:00:00 13,3 12,4 2 1 W 1021,9 20 0,0
09.08.2018 08:00:00 12,5 11,4 2 1 WZW 1021,2 8 -
09.08.2018 07:00:00 13,2 12,4 2 1 NW 1020,4 20 0,0
09.08.2018 06:00:00 13,3 12,5 2 1 NNW 1019,9 19 0,0
09.08.2018 05:00:00 13,7 12,9 2 1 W 1019,2 20 -
09.08.2018 04:00:00 13,4 12,8 4 2 W 1018,8 7 0,2
09.08.2018 03:00:00 13,7 12,9 4 2 W 1018,5 5 0,2
09.08.2018 02:00:00 13,3 12,7 2 1 ZO 1018,4 19 -
09.08.2018 01:00:00 12,9 12,1 2 1 NO 1018,1 15 0,0

tt = temperatuur
td = dauwpunt
ff = windsnelheid
dd = windrichting
ppp = luchtdruk
vv = zicht
rr = neerslag

Weerstations in de omgeving